Time,TemperatureF,DewpointF,PressureIn,WindDirection,WindDirectionDegrees,WindSpeedMPH,WindSpeedGustMPH,Humidity,HourlyPrecipIn,Conditions,Clouds,dailyrainin,SoftwareType,DateUTC
2013-09-06 00:01:00,68.6,64.0,30.10,West,267,0.0,0.0,84,0.00,,,0.00,weatherlink.com 1.10,2013-09-06 04:01:00,
2013-09-06 00:16:00,67.7,63.0,30.10,West,267,0.0,0.0,86,0.00,,,0.00,weatherlink.com 1.10,2013-09-06 04:16:00,
2013-09-06 00:31:00,68.2,64.0,30.11,East,93,0.0,3.0,86,0.00,,,0.00,weatherlink.com 1.10,2013-09-06 04:31:00,
2013-09-06 00:46:00,68.9,64.0,30.10,ESE,110,0.0,3.0,85,0.00,,,0.00,weatherlink.com 1.10,2013-09-06 04:46:00,
2013-09-06 01:01:00,68.8,64.0,30.11,SE,124,0.0,0.0,85,0.00,,,0.00,weatherlink.com 1.10,2013-09-06 05:01:00,
2013-09-06 01:16:00,68.2,64.0,30.11,SSE,151,0.0,1.0,87,0.00,,,0.00,weatherlink.com 1.10,2013-09-06 05:16:00,
2013-09-06 01:31:00,68.3,64.0,30.11,ESE,114,2.0,3.0,86,0.00,,,0.00,weatherlink.com 1.10,2013-09-06 05:31:00,
2013-09-06 01:46:00,68.7,63.0,30.11,ESE,116,1.0,5.0,83,0.00,,,0.00,weatherlink.com 1.10,2013-09-06 05:46:00,
2013-09-06 02:01:00,68.6,63.0,30.11,ESE,103,1.0,4.0,81,0.00,,,0.00,weatherlink.com 1.10,2013-09-06 06:01:00,
2013-09-06 02:16:00,68.6,62.0,30.10,East,82,2.0,4.0,80,0.00,,,0.00,weatherlink.com 1.10,2013-09-06 06:16:00,
2013-09-06 02:31:00,68.4,62.0,30.11,ESE,122,2.0,4.0,80,0.00,,,0.00,weatherlink.com 1.10,2013-09-06 06:31:00,
2013-09-06 02:46:00,68.4,61.0,30.11,ESE,114,1.0,4.0,78,0.00,,,0.00,weatherlink.com 1.10,2013-09-06 06:46:00,
2013-09-06 03:01:00,68.4,61.0,30.11,SE,145,0.0,4.0,77,0.00,,,0.00,weatherlink.com 1.10,2013-09-06 07:01:00,
2013-09-06 03:17:00,68.1,61.0,30.10,SE,126,0.0,5.0,77,0.00,,,0.00,weatherlink.com 1.10,2013-09-06 07:17:00,
2013-09-06 03:32:00,68.0,60.0,30.10,ENE,77,2.0,5.0,76,0.00,,,0.00,weatherlink.com 1.10,2013-09-06 07:32:00,
2013-09-06 03:47:00,67.7,60.0,30.10,ESE,111,2.0,3.0,76,0.00,,,0.00,weatherlink.com 1.10,2013-09-06 07:47:00,
2013-09-06 04:02:00,67.2,60.0,30.10,SSE,151,2.0,4.0,77,0.00,,,0.00,weatherlink.com 1.10,2013-09-06 08:02:00,
2013-09-06 04:17:00,66.6,60.0,30.10,ESE,107,1.0,3.0,78,0.00,,,0.00,weatherlink.com 1.10,2013-09-06 08:17:00,
2013-09-06 04:32:00,65.9,60.0,30.10,SE,126,0.0,3.0,80,0.00,,,0.00,weatherlink.com 1.10,2013-09-06 08:32:00,
2013-09-06 04:47:00,65.2,59.0,30.10,SE,126,0.0,3.0,80,0.00,,,0.00,weatherlink.com 1.10,2013-09-06 08:47:00,
2013-09-06 05:02:00,64.6,59.0,30.10,ESE,109,0.0,2.0,81,0.00,,,0.00,weatherlink.com 1.10,2013-09-06 09:02:00,
2013-09-06 05:17:00,64.1,58.0,30.10,East,89,2.0,3.0,81,0.00,,,0.00,weatherlink.com 1.10,2013-09-06 09:17:00,
2013-09-06 05:32:00,63.9,58.0,30.10,ESE,112,2.0,3.0,81,0.00,,,0.00,weatherlink.com 1.10,2013-09-06 09:32:00,
2013-09-06 05:47:00,64.0,58.0,30.10,ESE,108,0.0,3.0,82,0.00,,,0.00,weatherlink.com 1.10,2013-09-06 09:47:00,
2013-09-06 06:02:00,63.5,58.0,30.10,East,95,0.0,2.0,82,0.00,,,0.00,weatherlink.com 1.10,2013-09-06 10:02:00,
2013-09-06 06:17:00,63.1,58.0,30.10,East,100,0.0,3.0,82,0.00,,,0.00,weatherlink.com 1.10,2013-09-06 10:17:00,
2013-09-06 06:32:00,62.6,57.0,30.10,ESE,105,1.0,3.0,83,0.00,,,0.00,weatherlink.com 1.10,2013-09-06 10:32:00,
2013-09-06 06:47:00,62.2,57.0,30.11,East,99,0.0,2.0,84,0.00,,,0.00,weatherlink.com 1.10,2013-09-06 10:47:00,
2013-09-06 07:02:00,61.5,57.0,30.11,ESE,114,0.0,2.0,86,0.00,,,0.00,weatherlink.com 1.10,2013-09-06 11:02:00,
2013-09-06 07:17:00,60.8,57.0,30.11,SSE,149,0.0,0.0,86,0.00,,,0.00,weatherlink.com 1.10,2013-09-06 11:17:00,
2013-09-06 07:32:00,60.9,56.0,30.12,SE,127,0.0,3.0,85,0.00,,,0.00,weatherlink.com 1.10,2013-09-06 11:32:00,
2013-09-06 07:47:00,61.8,57.0,30.12,ESE,114,1.0,3.0,84,0.00,,,0.00,weatherlink.com 1.10,2013-09-06 11:47:00,
2013-09-06 08:02:00,63.2,57.0,30.12,SE,134,0.0,3.0,81,0.00,,,0.00,weatherlink.com 1.10,2013-09-06 12:02:00,
2013-09-06 08:17:00,64.4,57.0,30.12,ESE,103,2.0,3.0,78,0.00,,,0.00,weatherlink.com 1.10,2013-09-06 12:17:00,
2013-09-06 08:32:00,64.9,57.0,30.12,ESE,122,0.0,5.0,75,0.00,,,0.00,weatherlink.com 1.10,2013-09-06 12:32:00,
2013-09-06 08:47:00,66.0,58.0,30.12,ESE,112,1.0,3.0,75,0.00,,,0.00,weatherlink.com 1.10,2013-09-06 12:47:00,
2013-09-06 09:02:00,66.3,58.0,30.13,East,96,2.0,6.0,74,0.00,,,0.00,weatherlink.com 1.10,2013-09-06 13:02:00,
2013-09-06 09:17:00,66.6,58.0,30.13,ESE,102,3.0,6.0,73,0.00,,,0.00,weatherlink.com 1.10,2013-09-06 13:17:00,
2013-09-06 09:32:00,67.0,58.0,30.12,ESE,103,2.0,5.0,72,0.00,,,0.00,weatherlink.com 1.10,2013-09-06 13:32:00,
2013-09-06 09:47:00,68.0,58.0,30.13,East,84,6.0,7.0,71,0.00,,,0.00,weatherlink.com 1.10,2013-09-06 13:47:00,
2013-09-06 10:02:00,68.5,59.0,30.13,East,100,6.0,6.0,71,0.00,,,0.00,weatherlink.com 1.10,2013-09-06 14:02:00,
2013-09-06 10:17:00,69.2,59.0,30.14,East,96,2.0,4.0,71,0.00,,,0.00,weatherlink.com 1.10,2013-09-06 14:17:00,
2013-09-06 10:32:00,71.2,60.0,30.14,SSE,166,2.0,4.0,68,0.00,,,0.00,weatherlink.com 1.10,2013-09-06 14:32:00,
2013-09-06 10:47:00,71.6,60.0,30.14,SSE,167,2.0,5.0,67,0.00,,,0.00,weatherlink.com 1.10,2013-09-06 14:47:00,
2013-09-06 11:02:00,71.8,60.0,30.14,ESE,111,5.0,6.0,67,0.00,,,0.00,weatherlink.com 1.10,2013-09-06 15:02:00,
2013-09-06 11:17:00,72.7,62.0,30.13,East,84,3.0,4.0,68,0.00,,,0.00,weatherlink.com 1.10,2013-09-06 15:17:00,
2013-09-06 11:32:00,72.9,61.0,30.13,East,89,4.0,5.0,67,0.00,,,0.00,weatherlink.com 1.10,2013-09-06 15:32:00,
2013-09-06 11:47:00,75.1,63.0,30.13,ESE,113,2.0,5.0,66,0.00,,,0.00,weatherlink.com 1.10,2013-09-06 15:47:00,
2013-09-06 12:03:00,76.1,64.0,30.12,SE,133,1.0,4.0,66,0.00,,,0.00,weatherlink.com 1.10,2013-09-06 16:03:00,
2013-09-06 12:18:00,77.6,64.0,30.12,ESE,122,0.0,5.0,63,0.00,,,0.00,weatherlink.com 1.10,2013-09-06 16:18:00,
2013-09-06 12:33:00,78.4,64.0,30.12,West,266,0.0,4.0,62,0.00,,,0.00,weatherlink.com 1.10,2013-09-06 16:33:00,
2013-09-06 12:48:00,78.5,64.0,30.11,East,85,1.0,4.0,61,0.00,,,0.00,weatherlink.com 1.10,2013-09-06 16:48:00,
2013-09-06 13:03:00,79.6,66.0,30.11,South,172,2.0,3.0,63,0.00,,,0.00,weatherlink.com 1.10,2013-09-06 17:03:00,
2013-09-06 13:18:00,81.5,66.0,30.11,ESE,122,4.0,5.0,60,0.00,,,0.00,weatherlink.com 1.10,2013-09-06 17:18:00,
2013-09-06 13:33:00,81.1,65.0,30.10,East,98,0.0,6.0,59,0.00,,,0.00,weatherlink.com 1.10,2013-09-06 17:33:00,
2013-09-06 13:48:00,81.5,65.0,30.09,East,99,1.0,4.0,58,0.00,,,0.00,weatherlink.com 1.10,2013-09-06 17:48:00,
2013-09-06 14:03:00,81.4,65.0,30.09,NW,319,2.0,5.0,58,0.00,,,0.00,weatherlink.com 1.10,2013-09-06 18:03:00,
2013-09-06 14:18:00,82.3,66.0,30.09,ESE,114,3.0,5.0,58,0.00,,,0.00,weatherlink.com 1.10,2013-09-06 18:18:00,
2013-09-06 14:33:00,82.4,68.0,30.08,NNE,25,0.0,6.0,61,0.00,,,0.00,weatherlink.com 1.10,2013-09-06 18:33:00,
2013-09-06 14:48:00,83.2,67.0,30.07,SW,236,0.0,5.0,58,0.00,,,0.00,weatherlink.com 1.10,2013-09-06 18:48:00,
2013-09-06 15:03:00,83.5,68.0,30.07,SE,131,1.0,4.0,59,0.00,,,0.00,weatherlink.com 1.10,2013-09-06 19:03:00,
2013-09-06 15:18:00,84.2,67.0,30.06,SSE,163,1.0,3.0,57,0.00,,,0.00,weatherlink.com 1.10,2013-09-06 19:18:00,
2013-09-06 15:33:00,84.4,67.0,30.06,East,99,1.0,2.0,57,0.00,,,0.00,weatherlink.com 1.10,2013-09-06 19:33:00,
2013-09-06 15:48:00,83.8,68.0,30.05,ESE,103,0.0,1.0,59,0.00,,,0.00,weatherlink.com 1.10,2013-09-06 19:48:00,
2013-09-06 16:03:00,82.4,67.0,30.05,NE,48,0.0,0.0,59,0.00,,,0.00,weatherlink.com 1.10,2013-09-06 20:03:00,
2013-09-06 16:18:00,83.5,68.0,30.04,ENE,57,0.0,2.0,60,0.00,,,0.00,weatherlink.com 1.10,2013-09-06 20:18:00,
2013-09-06 16:33:00,85.1,67.0,30.03,WSW,246,0.0,2.0,54,0.00,,,0.00,weatherlink.com 1.10,2013-09-06 20:33:00,
2013-09-06 16:48:00,84.5,67.0,30.03,NNW,339,0.0,3.0,55,0.00,,,0.00,weatherlink.com 1.10,2013-09-06 20:48:00,
2013-09-06 17:03:00,84.6,68.0,30.03,North,6,0.0,4.0,57,0.00,,,0.00,weatherlink.com 1.10,2013-09-06 21:03:00,
2013-09-06 17:18:00,84.6,67.0,30.03,North,358,0.0,3.0,55,0.00,,,0.00,weatherlink.com 1.10,2013-09-06 21:18:00,
2013-09-06 17:33:00,84.9,68.0,30.02,East,90,0.0,2.0,58,0.00,,,0.00,weatherlink.com 1.10,2013-09-06 21:33:00,
2013-09-06 17:48:00,82.6,67.0,30.02,West,263,0.0,2.0,59,0.00,,,0.00,weatherlink.com 1.10,2013-09-06 21:48:00,
2013-09-06 18:03:00,81.3,67.0,30.02,West,263,0.0,0.0,62,0.00,,,0.00,weatherlink.com 1.10,2013-09-06 22:03:00,
2013-09-06 18:18:00,79.9,66.0,30.02,NW,316,0.0,0.0,62,0.00,,,0.00,weatherlink.com 1.10,2013-09-06 22:18:00,
2013-09-06 18:33:00,80.0,68.0,30.02,NW,316,0.0,0.0,67,0.00,,,0.00,weatherlink.com 1.10,2013-09-06 22:33:00,
2013-09-06 18:48:00,79.1,68.0,30.02,NW,316,0.0,0.0,69,0.00,,,0.00,weatherlink.com 1.10,2013-09-06 22:48:00,
2013-09-06 19:03:00,78.3,68.0,30.02,NW,316,0.0,0.0,70,0.00,,,0.00,weatherlink.com 1.10,2013-09-06 23:03:00,
2013-09-06 19:18:00,77.5,67.0,30.02,NW,316,0.0,0.0,71,0.00,,,0.00,weatherlink.com 1.10,2013-09-06 23:18:00,
2013-09-06 19:34:00,76.7,68.0,30.01,NW,316,0.0,0.0,74,0.00,,,0.00,weatherlink.com 1.10,2013-09-06 23:34:00,
2013-09-06 19:49:00,75.7,68.0,30.01,NW,316,0.0,0.0,77,0.00,,,0.00,weatherlink.com 1.10,2013-09-06 23:49:00,
2013-09-06 20:04:00,74.4,67.0,30.01,NW,316,0.0,0.0,78,0.00,,,0.00,weatherlink.com 1.10,2013-09-07 00:04:00,
2013-09-06 20:19:00,73.1,67.0,30.01,NW,316,0.0,0.0,81,0.00,,,0.00,weatherlink.com 1.10,2013-09-07 00:19:00,
2013-09-06 20:34:00,71.7,66.0,30.01,NW,316,0.0,0.0,82,0.00,,,0.00,weatherlink.com 1.10,2013-09-07 00:34:00,
2013-09-06 20:49:00,70.9,66.0,30.01,NW,316,0.0,0.0,84,0.00,,,0.00,weatherlink.com 1.10,2013-09-07 00:49:00,
2013-09-06 21:04:00,70.1,65.0,30.01,NW,316,0.0,0.0,85,0.00,,,0.00,weatherlink.com 1.10,2013-09-07 01:04:00,
2013-09-06 21:19:00,70.0,65.0,30.01,NW,316,0.0,0.0,85,0.00,,,0.00,weatherlink.com 1.10,2013-09-07 01:19:00,
2013-09-06 21:34:00,69.9,65.0,30.01,NW,316,0.0,0.0,84,0.00,,,0.00,weatherlink.com 1.10,2013-09-07 01:34:00,
2013-09-06 21:49:00,69.5,65.0,30.01,NW,316,0.0,0.0,84,0.00,,,0.00,weatherlink.com 1.10,2013-09-07 01:49:00,
2013-09-06 22:04:00,69.1,64.0,30.02,NW,316,0.0,0.0,84,0.00,,,0.00,weatherlink.com 1.10,2013-09-07 02:04:00,
2013-09-06 22:19:00,68.6,64.0,30.02,NW,316,0.0,0.0,85,0.00,,,0.00,weatherlink.com 1.10,2013-09-07 02:19:00,
2013-09-06 22:34:00,68.2,64.0,30.01,NW,316,0.0,0.0,87,0.00,,,0.00,weatherlink.com 1.10,2013-09-07 02:34:00,
2013-09-06 22:49:00,68.4,64.0,30.01,NW,314,0.0,0.0,87,0.00,,,0.00,weatherlink.com 1.10,2013-09-07 02:49:00,
2013-09-06 23:04:00,68.4,65.0,30.01,NW,316,0.0,0.0,88,0.00,,,0.00,weatherlink.com 1.10,2013-09-07 03:04:00,
2013-09-06 23:19:00,68.3,65.0,30.01,NW,316,0.0,0.0,89,0.00,,,0.00,weatherlink.com 1.10,2013-09-07 03:19:00,
2013-09-06 23:34:00,68.3,65.0,30.01,NW,315,0.0,0.0,89,0.00,,,0.00,weatherlink.com 1.10,2013-09-07 03:34:00,
2013-09-06 23:49:00,68.1,65.0,30.01,NW,316,0.0,0.0,89,0.00,,,0.00,weatherlink.com 1.10,2013-09-07 03:49:00,